Location: Sunset Hills
(34.4956°N, 117.2223°W)
Time: 02:50:05
(UTC+00:00)

Cosmos 2242 Rocket - Pass Details

Date: 03 August 2024
Orbit: 616 x 647 km, 82.5° (Epoch: 11 September)

Event Time Altitude Azimuth Distance (km) Brightness Sun altitude
Rises 12:06:19 0° 349° (N) 2,895 7.3 -11.0°
Reaches altitude 10° 12:08:33 10° 347° (NNW) 1,988 6.4 -10.6°
Maximum altitude 12:12:54 65° 266° (W) 686 3.5 -9.8°
Drops below altitude 10° 12:17:16 10° 185° (S) 1,989 5.8 -9.1°
Sets 12:19:30 0° 182° (S) 2,897 6.7 -8.7°
